Terminal Aerodrome Forecast
Issued by NWS

Home | Current Version | Previous Version | Text Only | Print | Product List | Glossary On
Versions: 1 2 3 4 5 6 7 8 9 10 11 12 13 14 15 16 17 18
000
FTUS42 TJSJ 111400 AAA
TAFJSJ
TAF AMD
TJSJ 111411Z 1114/1212 08015G22KT P6SM VCSH SCT030 SCT070
     FM112300 08008KT P6SM SCT030=

USA.gov is the U.S. government's official web portal to all federal, state and local government web resources and services.